Total_Precipitation_Accumulation
0.00 0.00 0.02 0.00 0.00 0.00 0.00 0.00 0.00 0.00 0.00 0.01 0.02 0.02 0.00 0.00 0.00 0.00 0.00 0.00 0.01 0.01 0.01 0.00 0.00 0.01 0.01 0.00 0.00 0.00 0.00 0.00 0.00 0.01 0.01 0.01 0.01 0.01 0.02 0.02 0.09 0.14 0.06
0.00 0.00 0.01 0.00 0.00 0.00 0.00 0.00 0.00 0.00 0.00 0.00 0.00 0.01 0.00 0.00 0.00 0.00 0.00 0.00 0.00 0.00 0.00 0.00 0.00 0.00 0.00 0.00 0.00 0.00 0.00 0.00 0.00 0.00 0.01 0.01 0.01 0.01 0.01 0.01 0.08 0.10 0.03
0.00 0.00 0.00 0.00 0.00 0.00 0.00 0.00 0.00 0.00 0.00 0.00 0.00 0.00 0.00 0.00 0.00 0.00 0.00 0.00 0.00 0.00 0.00 0.00 0.00 0.00 0.00 0.00 0.00 0.00 0.00 0.00 0.00 0.00 0.01 0.01 0.00 0.00 0.01 0.00 0.01 0.01 0.01
0.00 0.00 0.00 0.00 0.00 0.00 0.00 0.00 0.00 0.00 0.00 0.00 0.00 0.00 0.00 0.00 0.00 0.00 0.00 0.00 0.00 0.00 0.00 0.00 0.00 0.00 0.00 0.00 0.00 0.00 0.00 0.00 0.00 0.00 0.03 0.09 0.02 0.01 0.01 0.00 0.00 0.00 0.00
0.00 0.00 0.00 0.00 0.00 0.00 0.00 0.00 0.00 0.00 0.00 0.00 0.00 0.00 0.00 0.00 0.00 0.00 0.00 0.00 0.00 0.00 0.00 0.00 0.00 0.00 0.00 0.01 0.01 0.01 0.00 0.00 0.00 0.00 0.03 0.08 0.07 0.03 0.02 0.03 0.02 0.01 0.00
0.00 0.00 0.00 0.00 0.00 0.00 0.00 0.00 0.00 0.00 0.00 0.00 0.00 0.00 0.00 0.00 0.00 0.00 0.00 0.00 0.00 0.00 0.00 0.00 0.00 0.00 0.00 0.01 0.01 0.01 0.01 0.01 0.01 0.01 0.01 0.04 0.11 0.11 0.06 0.12 0.16 0.11 0.04
0.00 0.00 0.00 0.00 0.00 0.00 0.00 0.00 0.00 0.00 0.00 0.00 0.00 0.00 0.00 0.00 0.00 0.00 0.00 0.00 0.00 0.00 0.00 0.01 0.01 0.01 0.00 0.00 0.00 0.01 0.00 0.00 0.01 0.02 0.02 0.03 0.08 0.09 0.13 0.27 0.38 0.32 0.22
0.00 0.00 0.00 0.00 0.00 0.00 0.00 0.00 0.00 0.00 0.00 0.00 0.00 0.00 0.00 0.00 0.01 0.01 0.02 0.01 0.01 0.01 0.01 0.01 0.01 0.01 0.01 0.02 0.02 0.02 0.02 0.01 0.00 0.01 0.01 0.02 0.04 0.08 0.21 0.36 0.47 0.51 0.47
0.00 0.00 0.00 0.00 0.00 0.00 0.00 0.00 0.00 0.00 0.00 0.00 0.00 0.00 0.00 0.00 0.02 0.03 0.05 0.04 0.03 0.03 0.03 0.02 0.01 0.01 0.02 0.03 0.03 0.03 0.03 0.03 0.02 0.02 0.02 0.03 0.05 0.13 0.34 0.44 0.50 0.59 0.64
0.00 0.00 0.00 0.00 0.00 0.00 0.00 0.00 0.00 0.00 0.00 0.00 0.00 0.01 0.01 0.01 0.02 0.04 0.05 0.07 0.09 0.09 0.09 0.06 0.04 0.02 0.03 0.03 0.02 0.01 0.02 0.03 0.02 0.03 0.05 0.05 0.07 0.21 0.38 0.42 0.55 0.64 0.66
0.01 0.01 0.00 0.00 0.00 0.00 0.00 0.00 0.00 0.01 0.01 0.00 0.01 0.01 0.01 0.01 0.03 0.09 0.12 0.16 0.17 0.16 0.13 0.09 0.05 0.05 0.06 0.04 0.05 0.10 0.07 0.03 0.03 0.04 0.03 0.04 0.09 0.26 0.41 0.48 0.55 0.61 0.63
0.01 0.01 0.01 0.00 0.00 0.00 0.00 0.00 0.00 0.01 0.02 0.02 0.03 0.08 0.10 0.15 0.13 0.08 0.16 0.28 0.27 0.28 0.23 0.20 0.19 0.14 0.10 0.11 0.36 0.56 0.18 0.12 0.11 0.08 0.08 0.16 0.28 0.41 0.57 0.54 0.51 0.53 0.50
0.00 0.01 0.01 0.00 0.01 0.01 0.00 0.00 0.00 0.01 0.06 0.05 0.06 0.12 0.22 0.21 0.14 0.11 0.11 0.21 0.30 0.30 0.23 0.36 0.43 0.29 0.28 0.36 0.50 0.56 0.30 0.22 0.14 0.12 0.13 0.23 0.40 0.59 0.75 0.65 0.54 0.47 0.43
0.01 0.01 0.01 0.01 0.01 0.02 0.01 0.01 0.01 0.01 0.03 0.04 0.08 0.10 0.17 0.18 0.12 0.10 0.13 0.14 0.19 0.23 0.35 0.43 0.49 0.46 0.47 0.43 0.48 0.43 0.40 0.41 0.29 0.33 0.31 0.35 0.38 0.47 0.73 0.76 0.59 0.51 0.45
0.01 0.02 0.03 0.03 0.04 0.06 0.06 0.06 0.03 0.03 0.04 0.04 0.07 0.08 0.12 0.17 0.16 0.17 0.19 0.18 0.16 0.23 0.40 0.50 0.48 0.54 0.64 0.61 0.51 0.45 0.47 0.51 0.53 0.66 0.46 0.44 0.40 0.40 0.64 0.71 0.59 0.53 0.47
0.06 0.06 0.07 0.10 0.15 0.16 0.15 0.13 0.11 0.11 0.12 0.11 0.12 0.14 0.16 0.22 0.28 0.31 0.27 0.31 0.27 0.33 0.43 0.54 0.58 0.74 0.75 0.76 0.61 0.57 0.55 0.56 0.60 0.70 0.63 0.62 0.54 0.47 0.52 0.58 0.61 0.55 0.49
0.16 0.16 0.22 0.30 0.35 0.33 0.27 0.21 0.21 0.24 0.26 0.27 0.31 0.34 0.37 0.40 0.46 0.50 0.44 0.41 0.51 0.61 0.65 0.69 0.75 0.88 0.84 0.81 0.65 0.65 0.61 0.55 0.54 0.54 0.55 0.60 0.63 0.58 0.51 0.49 0.52 0.50 0.48
0.30 0.37 0.52 0.70 0.67 0.56 0.49 0.42 0.38 0.40 0.44 0.47 0.50 0.54 0.55 0.59 0.64 0.64 0.51 0.47 0.78 0.86 0.86 0.95 0.97 1.03 1.13 1.13 0.90 0.77 0.71 0.63 0.50 0.48 0.46 0.48 0.54 0.46 0.43 0.48 0.48 0.48 0.55
0.63 0.84 1.12 1.20 1.11 1.05 0.89 0.71 0.60 0.59 0.55 0.54 0.61 0.61 0.63 0.69 0.73 0.81 0.63 0.64 0.96 1.07 1.06 1.07 1.21 1.37 1.35 1.36 1.16 0.93 0.76 0.61 0.47 0.44 0.41 0.38 0.39 0.39 0.38 0.38 0.36 0.42 0.63
1.03 1.34 1.49 1.55 1.52 1.49 1.43 1.15 0.87 0.70 0.58 0.59 0.58 0.56 0.54 0.58 0.78 0.99 0.78 0.84 1.11 1.14 1.10 1.23 1.35 1.47 1.38 1.45 1.32 0.91 0.69 0.50 0.45 0.36 0.32 0.29 0.24 0.24 0.29 0.35 0.42 0.45 0.62
1.22 1.50 1.79 1.85 1.80 1.69 1.64 1.41 1.14 0.80 0.69 0.61 0.52 0.51 0.59 0.67 0.85 1.12 0.97 1.04 1.14 1.08 1.04 1.22 1.33 1.27 1.16 1.54 1.47 0.90 0.51 0.37 0.28 0.18 0.20 0.19 0.15 0.16 0.25 0.36 0.45 0.51 0.51
1.11 1.36 1.62 1.58 1.39 1.26 1.21 1.17 1.11 1.10 0.94 0.79 0.75 0.81 0.83 0.90 0.96 1.08 1.11 1.06 1.09 1.05 0.92 0.95 1.12 1.05 0.84 1.23 1.37 1.22 0.71 0.37 0.23 0.13 0.15 0.15 0.18 0.24 0.29 0.32 0.38 0.50 0.51
0.94 1.05 1.14 1.04 0.91 0.91 1.01 1.09 1.16 1.26 1.17 1.16 1.24 1.28 1.16 1.17 1.15 1.19 1.10 1.05 1.02 1.02 0.86 0.80 0.95 1.00 0.83 0.92 1.24 1.48 1.05 0.53 0.37 0.19 0.22 0.27 0.34 0.42 0.44 0.47 0.50 0.53 0.57
0.77 0.84 0.96 0.97 0.95 1.02 1.23 1.31 1.33 1.44 1.54 1.67 1.88 1.83 1.65 1.49 1.36 1.25 1.07 0.93 0.83 0.82 0.74 0.72 0.83 0.91 0.92 0.76 0.86 1.01 1.02 0.91 0.75 0.40 0.26 0.33 0.48 0.54 0.55 0.60 0.57 0.56 0.61
0.70 0.74 0.93 1.04 1.16 1.36 1.53 1.61 1.68 1.74 1.80 1.79 1.78 1.67 1.55 1.46 1.32 1.18 1.04 0.91 0.82 0.74 0.67 0.65 0.68 0.72 0.74 0.68 0.69 0.73 0.82 0.86 0.82 0.68 0.45 0.46 0.48 0.40 0.40 0.45 0.56 0.71 0.71
1.01 0.95 1.01 1.16 1.32 1.48 1.57 1.64 1.65 1.59 1.54 1.44 1.31 1.19 1.09 1.03 0.95 0.88 0.79 0.69 0.63 0.61 0.60 0.58 0.57 0.58 0.59 0.62 0.64 0.65 0.73 0.80 0.89 0.92 0.76 0.64 0.57 0.50 0.48 0.46 0.52 0.66 0.72